Columbia, SC

10:43 AM EDT on May 25, 2017 (GMT -0400)
Columbia Metro

Weather History for KCAE - October, 2013

Change the Weather History Date:

Wednesday, October 16, 2013

  Actual Average Record
Temperature  
Mean Temperature 66 °F 64 °F  
Max Temperature 79 °F 76 °F 89 °F (1989)
Min Temperature 53 °F 52 °F 32 °F (1987)
Degree Days  
Heating Degree Days 0 3  
Month to date heating degree days 1 35  
Since 1 July heating degree days 1 43  
Cooling Degree Days 1 2  
Month to date cooling degree days 95 62  
Year to date cooling degree days 2133 2129  
Growing Degree Days 16 (Base 50)    
Moisture  
Dew Point 58 °F    
Average Humidity 74    
Maximum Humidity 93    
Minimum Humidity 54    
Precipitation  
Precipitation 0.00 in 0.11 in 2.65 in (1932)
Month to date precipitation 1.95 1.73  
Year to date precipitation 47.50 37.19  
Sea Level Pressure  
Sea Level Pressure 30.01 in    
Wind  
Wind Speed 1 mph (NNE)    
Max Wind Speed 7 mph    
Max Gust Speed 10 mph    
Visibility 10 miles    
Events      
T = Trace of Precipitation, MM = Missing Value Source: NWS Daily Summary

Daily Weather History Graph

Daily Weather History Graph

Search for Another Location

Airport or City:

Trip Planner

Search our weather history database for the weather conditions in past years. The results will help you decide how hot, cold, wet, or windy it might be!

Date:

Astronomy

Oct. 16, 2013 Rise Set
Actual Time 7:30 AM EDT 6:48 PM EDT
Civil Twilight 7:05 AM EDT 7:14 PM EDT
Nautical Twilight 6:36 AM EDT 7:43 PM EDT
Astronomical Twilight 6:07 AM EDT 8:12 PM EDT
Moon 5:23 PM EDT (10/16) 5:02 AM EDT (10/16)
Length of Visible Light 12h 08m
Length of Day
11h 18m
Waxing Gibbous, 94% of the Moon is Illuminated
Oct 16
Waxing Gibbous
Oct 18
Full
Oct 26
Last Quarter
Nov 3
New
Nov 10
First Quarter

Hourly Weather History & Observations

Time (EDT) Temp. Dew Point Humidity Pressure Visibility Wind Dir Wind Speed Gust Speed Precip Events Conditions
12:56 AM 57.9 °F 54.0 °F 87% 30.05 in 10.0 mi Calm Calm - N/A   Scattered Clouds
1:56 AM 55.9 °F 54.0 °F 93% 30.04 in 10.0 mi Calm Calm - N/A   Scattered Clouds
2:56 AM 55.9 °F 53.1 °F 90% 30.03 in 10.0 mi Calm Calm - N/A   Scattered Clouds
3:56 AM 55.0 °F 52.0 °F 89% 30.01 in 10.0 mi Calm Calm - N/A   Scattered Clouds
4:56 AM 55.0 °F 53.1 °F 93% 30.01 in 10.0 mi WSW 3.5 mph - N/A   Partly Cloudy
5:56 AM 54.0 °F 52.0 °F 93% 30.02 in 10.0 mi Calm Calm - N/A   Partly Cloudy
6:56 AM 55.0 °F 52.0 °F 89% 30.04 in 10.0 mi Calm Calm - N/A   Mostly Cloudy
7:56 AM 54.0 °F 52.0 °F 93% 30.04 in 10.0 mi Calm Calm - N/A   Mostly Cloudy
8:56 AM 59.0 °F 55.0 °F 87% 30.05 in 10.0 mi Calm Calm - N/A   Scattered Clouds
9:46 AM 66.2 °F 59.0 °F 78% 30.07 in 10.0 mi ENE 3.5 mph - N/A   Mostly Cloudy
9:56 AM 66.0 °F 60.1 °F 81% 30.07 in 10.0 mi Calm Calm - N/A   Overcast
10:56 AM 69.1 °F 61.0 °F 75% 30.06 in 10.0 mi East 3.5 mph - N/A   Mostly Cloudy
11:12 AM 71.6 °F 62.6 °F 73% 30.06 in 10.0 mi Calm Calm - N/A   Mostly Cloudy
11:56 AM 73.0 °F 62.1 °F 68% 30.04 in 10.0 mi ENE 3.5 mph - N/A   Mostly Cloudy
12:18 PM 73.4 °F 60.8 °F 65% 30.05 in 10.0 mi NNE 3.5 mph - N/A   Mostly Cloudy
12:56 PM 73.9 °F 60.1 °F 62% 30.03 in 10.0 mi North 3.5 mph - N/A   Overcast
1:42 PM 75.2 °F 60.8 °F 61% 30.01 in 10.0 mi NE 6.9 mph - N/A   Overcast
1:56 PM 73.9 °F 59.0 °F 59% 30.00 in 10.0 mi Variable 3.5 mph - N/A   Mostly Cloudy
2:56 PM 77.0 °F 59.0 °F 54% 29.97 in 10.0 mi Calm Calm - N/A   Scattered Clouds
3:56 PM 75.9 °F 59.0 °F 56% 29.97 in 10.0 mi Calm Calm - N/A   Scattered Clouds
4:56 PM 77.0 °F 59.0 °F 54% 29.96 in 10.0 mi Calm Calm - N/A   Scattered Clouds
5:56 PM 77.0 °F 59.0 °F 54% 29.96 in 10.0 mi NNE 4.6 mph - N/A   Scattered Clouds
6:56 PM 75.0 °F 60.1 °F 60% 29.97 in 10.0 mi Calm Calm - N/A   Mostly Cloudy
7:56 PM 71.1 °F 62.1 °F 73% 29.97 in 10.0 mi Calm Calm - N/A   Scattered Clouds
8:56 PM 68.0 °F 62.1 °F 81% 29.98 in 10.0 mi Calm Calm - N/A   Scattered Clouds
9:56 PM 68.0 °F 62.1 °F 81% 29.99 in 10.0 mi WSW 3.5 mph - N/A   Mostly Cloudy
10:56 PM 68.0 °F 63.0 °F 84% 29.98 in 10.0 mi Calm Calm - N/A   Mostly Cloudy
11:56 PM 68.0 °F 63.0 °F 84% 29.99 in 10.0 mi Calm Calm - N/A   Overcast